| time (UTC) | temp F | wind direction | speed MPH | gust MPH | rain 1hr in | rain 24hr in | rain mn in | humidity % | barometer mb |
| 20260831053748 | 79 | 197 | 5.0 | 9.0 | 0.00 | 0.00 | 0.00 | 40 | 1014.1 |
| 20260831053247 | 79 | 168 | 9.0 | 10.0 | 0.00 | 0.00 | 0.00 | 39 | 1013.9 |
| 20260831052742 | 79 | 176 | 4.0 | 9.0 | 0.00 | 0.00 | 0.00 | 39 | 1014.0 |
| 20260831052241 | 79 | 149 | 7.0 | 9.0 | 0.00 | 0.00 | 0.00 | 39 | 1014.0 |
| 20260831051739 | 79 | 135 | 4.0 | 7.0 | 0.00 | 0.00 | 0.00 | 39 | 1013.9 |
| 20260831051238 | 79 | 163 | 3.0 | 9.0 | 0.00 | 0.00 | 0.00 | 39 | 1014.0 |
| 20260831050733 | 79 | 178 | 3.0 | 8.0 | 0.00 | 0.00 | 0.00 | 39 | 1013.9 |
| 20260831050232 | 79 | 174 | 4.0 | 8.0 | 0.00 | 0.00 | 0.00 | 39 | 1013.8 |
| 20260831045726 | 80 | 161 | 6.0 | 9.0 | 0.00 | 0.00 | 0.00 | 39 | 1013.7 |
| 20260831045221 | 80 | 180 | 6.0 | 8.0 | 0.00 | 0.00 | 0.00 | 39 | 1013.6 |
| 20260831044716 | 80 | 177 | 5.0 | 8.0 | 0.00 | 0.00 | 0.00 | 38 | 1013.7 |
| 20260831044211 | 80 | 180 | 3.0 | 9.0 | 0.00 | 0.00 | 0.00 | 38 | 1014.0 |
| 20260831043707 | 81 | 170 | 8.0 | 11.0 | 0.00 | 0.00 | 0.00 | 37 | 1013.8 |
| 20260831043202 | 81 | 177 | 8.0 | 12.0 | 0.00 | 0.00 | 0.00 | 37 | 1013.7 |
| 20260831042701 | 81 | 162 | 3.0 | 10.0 | 0.00 | 0.00 | 0.00 | 37 | 1013.9 |
| 20260831042156 | 81 | 188 | 4.0 | 10.0 | 0.00 | 0.00 | 0.00 | 37 | 1013.9 |
| 20260831041651 | 82 | 191 | 5.0 | 9.0 | 0.00 | 0.00 | 0.00 | 37 | 1013.9 |
| 20260831041150 | 82 | 172 | 6.0 | 10.0 | 0.00 | 0.00 | 0.00 | 36 | 1013.9 |
| 20260831040646 | 82 | 189 | 8.0 | 9.0 | 0.00 | 0.00 | 0.00 | 36 | 1013.7 |
| 20260831040144 | 82 | 178 | 7.0 | 10.0 | 0.00 | 0.00 | 0.00 | 36 | 1013.8 |
| 20260831035643 | 83 | 195 | 8.0 | 11.0 | 0.00 | 0.00 | 0.00 | 35 | 1013.6 |
| 20260831035138 | 83 | 168 | 7.0 | 10.0 | 0.00 | 0.00 | 0.00 | 35 | 1013.6 |
| 20260831034637 | 83 | 166 | 7.0 | 11.0 | 0.00 | 0.00 | 0.00 | 35 | 1013.7 |
| 20260831034132 | 84 | 168 | 5.0 | 11.0 | 0.00 | 0.00 | 0.00 | 35 | 1013.7 |
| 20260831033627 | 84 | 176 | 6.0 | 13.0 | 0.00 | 0.00 | 0.00 | 34 | 1013.8 |
| 20260831033123 | 84 | 198 | 4.0 | 12.0 | 0.00 | 0.00 | 0.00 | 34 | 1013.6 |
| 20260831032617 | 85 | 170 | 9.0 | 14.0 | 0.00 | 0.00 | 0.00 | 34 | 1013.7 |
| 20260831032112 | 85 | 170 | 7.0 | 10.0 | 0.00 | 0.00 | 0.00 | 34 | 1013.5 |
| 20260831031607 | 85 | 155 | 9.0 | 11.0 | 0.00 | 0.00 | 0.00 | 34 | 1013.5 |
| 20260831031106 | 85 | 159 | 10.0 | 12.0 | 0.00 | 0.00 | 0.00 | 33 | 1013.2 |
| 20260831030605 | 86 | 192 | 6.0 | 13.0 | 0.00 | 0.00 | 0.00 | 33 | 1013.3 |
| 20260831030104 | 86 | 181 | 9.0 | 11.0 | 0.00 | 0.00 | 0.00 | 33 | 1013.2 |
| 20260831025603 | 86 | 158 | 7.0 | 14.0 | 0.00 | 0.00 | 0.00 | 32 | 1013.0 |
| 20260831025058 | 86 | 147 | 7.0 | 11.0 | 0.00 | 0.00 | 0.00 | 33 | 1012.9 |
| 20260831024554 | 86 | 169 | 4.0 | 10.0 | 0.00 | 0.00 | 0.00 | 32 | 1012.9 |
| 20260831024052 | 87 | 159 | 8.0 | 13.0 | 0.00 | 0.00 | 0.00 | 32 | 1012.8 |
| 20260831023550 | 87 | 156 | 5.0 | 12.0 | 0.00 | 0.00 | 0.00 | 32 | 1012.9 |
| 20260831023045 | 87 | 170 | 9.0 | 11.0 | 0.00 | 0.00 | 0.00 | 32 | 1012.6 |
| 20260831022544 | 87 | 159 | 4.0 | 12.0 | 0.00 | 0.00 | 0.00 | 32 | 1012.5 |
| 20260831022035 | 87 | 171 | 6.0 | 12.0 | 0.00 | 0.00 | 0.00 | 32 | 1012.8 |
| 20260831021533 | 87 | 163 | 4.0 | 13.0 | 0.00 | 0.00 | 0.00 | 32 | 1012.5 |
| 20260831021030 | 87 | 180 | 11.0 | 14.0 | 0.00 | 0.00 | 0.00 | 31 | 1012.6 |
| 20260831020525 | 88 | 157 | 8.0 | 12.0 | 0.00 | 0.00 | 0.00 | 31 | 1012.5 |
| 20260831020020 | 88 | 160 | 9.0 | 12.0 | 0.00 | 0.00 | 0.00 | 31 | 1012.3 |
| 20260831015515 | 88 | 172 | 8.0 | 13.0 | 0.00 | 0.00 | 0.00 | 31 | 1012.5 |
| 20260831015010 | 89 | 152 | 9.0 | 13.0 | 0.00 | 0.00 | 0.00 | 30 | 1012.3 |
| 20260831014504 | 89 | 153 | 5.0 | 11.0 | 0.00 | 0.00 | 0.00 | 30 | 1012.2 |
| 20260831014001 | 89 | 153 | 7.0 | 11.0 | 0.00 | 0.00 | 0.00 | 29 | 1012.3 |
| 20260831013456 | 89 | 174 | 8.0 | 11.0 | 0.00 | 0.00 | 0.00 | 29 | 1012.2 |
| 20260831012955 | 90 | 172 | 5.0 | 18.0 | 0.00 | 0.00 | 0.00 | 29 | 1012.2 |
| 20260831012445 | 90 | 169 | 9.0 | 15.0 | 0.00 | 0.00 | 0.00 | 28 | 1012.0 |
| 20260831011944 | 90 | 168 | 6.0 | 14.0 | 0.00 | 0.00 | 0.00 | 28 | 1012.0 |
| 20260831011439 | 91 | 189 | 6.0 | 14.0 | 0.00 | 0.00 | 0.00 | 28 | 1012.0 |
| 20260831010936 | 91 | 182 | 7.0 | 12.0 | 0.00 | 0.00 | 0.00 | 28 | 1012.1 |
| 20260831010435 | 91 | 181 | 9.0 | 10.0 | 0.00 | 0.00 | 0.00 | 27 | 1012.2 |
| 20260831005931 | 92 | 158 | 11.0 | 12.0 | 0.00 | 0.00 | 0.00 | 27 | 1012.0 |
| 20260831005427 | 92 | 161 | 7.0 | 13.0 | 0.00 | 0.00 | 0.00 | 27 | 1012.0 |
| 20260831004926 | 93 | 189 | 4.0 | 12.0 | 0.00 | 0.00 | 0.00 | 27 | 1011.7 |
| 20260831004423 | 93 | 185 | 7.0 | 14.0 | 0.00 | 0.00 | 0.00 | 26 | 1011.8 |
| 20260831003918 | 94 | 160 | 7.0 | 13.0 | 0.00 | 0.00 | 0.00 | 26 | 1012.0 |
| 20260831003414 | 94 | 186 | 6.0 | 15.0 | 0.00 | 0.00 | 0.00 | 26 | 1011.8 |
| 20260831002908 | 94 | 188 | 13.0 | 15.0 | 0.00 | 0.00 | 0.00 | 25 | 1011.9 |
| 20260831002407 | 95 | 184 | 11.0 | 17.0 | 0.00 | 0.00 | 0.00 | 25 | 1011.9 |
| 20260831001903 | 95 | 150 | 6.0 | 12.0 | 0.00 | 0.00 | 0.00 | 25 | 1011.7 |
| 20260831001357 | 96 | 172 | 9.0 | 11.0 | 0.00 | 0.00 | 0.00 | 25 | 1011.7 |
| 20260831000855 | 96 | 172 | 9.0 | 11.0 | 0.00 | 0.00 | 0.00 | 25 | 1011.7 |
| 20260831000350 | 96 | 175 | 9.0 | 12.0 | 0.00 | 0.00 | 0.00 | 24 | 1011.7 |
| 20260830235848 | 96 | 161 | 7.0 | 14.0 | 0.00 | 0.00 | 0.00 | 24 | 1011.8 |
| 20260830235343 | 96 | 175 | 12.0 | 16.0 | 0.00 | 0.00 | 0.00 | 24 | 1011.9 |
| 20260830234839 | 97 | 166 | 11.0 | 12.0 | 0.00 | 0.00 | 0.00 | 24 | 1011.9 |
| 20260830234334 | 97 | 180 | 6.0 | 10.0 | 0.00 | 0.00 | 0.00 | 23 | 1011.9 |
| 20260830233830 | 97 | 180 | 6.0 | 10.0 | 0.00 | 0.00 | 0.00 | 23 | 1011.9 |
| 20260830233325 | 97 | 173 | 9.0 | 11.0 | 0.00 | 0.00 | 0.00 | 23 | 1012.0 |
| 20260830232821 | 97 | 163 | 9.0 | 14.0 | 0.00 | 0.00 | 0.00 | 23 | 1011.7 |
| 20260830232316 | 98 | 174 | 9.0 | 13.0 | 0.00 | 0.00 | 0.00 | 23 | 1012.0 |
| 20260830231812 | 98 | 198 | 8.0 | 11.0 | 0.00 | 0.00 | 0.00 | 24 | 1011.8 |
| 20260830231307 | 98 | 174 | 7.0 | 14.0 | 0.00 | 0.00 | 0.00 | 23 | 1011.9 |
| 20260830230801 | 97 | 201 | 10.0 | 11.0 | 0.00 | 0.00 | 0.00 | 23 | 1011.9 |
| 20260830230257 | 98 | 200 | 13.0 | 14.0 | 0.00 | 0.00 | 0.00 | 23 | 1011.7 |
| 20260830225756 | 98 | 203 | 11.0 | 12.0 | 0.00 | 0.00 | 0.00 | 23 | 1011.9 |
| 20260830225251 | 98 | 189 | 12.0 | 16.0 | 0.00 | 0.00 | 0.00 | 22 | 1011.7 |
| 20260830224750 | 98 | 173 | 9.0 | 12.0 | 0.00 | 0.00 | 0.00 | 23 | 1011.9 |
| 20260830224246 | 98 | 192 | 14.0 | 16.0 | 0.00 | 0.00 | 0.00 | 22 | 1012.0 |
| 20260830223743 | 98 | 192 | 14.0 | 16.0 | 0.00 | 0.00 | 0.00 | 22 | 1011.8 |
| 20260830223238 | 98 | 170 | 11.0 | 18.0 | 0.00 | 0.00 | 0.00 | 23 | 1011.9 |
| 20260830222732 | 98 | 170 | 11.0 | 18.0 | 0.00 | 0.00 | 0.00 | 23 | 1011.9 |
| 20260830222228 | 98 | 170 | 11.0 | 18.0 | 0.00 | 0.00 | 0.00 | 23 | 1011.8 |
| 20260830221723 | 98 | 170 | 11.0 | 18.0 | 0.00 | 0.00 | 0.00 | 23 | 1012.2 |
| 20260830221220 | 98 | 159 | 8.0 | 15.0 | 0.00 | 0.00 | 0.00 | 23 | 1012.0 |
| 20260830220715 | 98 | 191 | 9.0 | 17.0 | 0.00 | 0.00 | 0.00 | 23 | 1012.0 |
| 20260830220214 | 98 | 210 | 14.0 | 18.0 | 0.00 | 0.00 | 0.00 | 22 | 1011.9 |
| 20260830215713 | 99 | 180 | 9.0 | 14.0 | 0.00 | 0.00 | 0.00 | 22 | 1012.2 |
| 20260830215207 | 98 | 196 | 9.0 | 10.0 | 0.00 | 0.00 | 0.00 | 22 | 1012.1 |
| 20260830214702 | 98 | 196 | 9.0 | 10.0 | 0.00 | 0.00 | 0.00 | 22 | 1012.1 |
| 20260830214157 | 98 | 195 | 9.0 | 17.0 | 0.00 | 0.00 | 0.00 | 22 | 1012.1 |
| 20260830213656 | 98 | 155 | 6.0 | 19.0 | 0.00 | 0.00 | 0.00 | 22 | 1012.1 |
| 20260830213152 | 99 | 209 | 14.0 | 20.0 | 0.00 | 0.00 | 0.00 | 22 | 1012.1 |
| 20260830212648 | 98 | 190 | 5.0 | 13.0 | 0.00 | 0.00 | 0.00 | 23 | 1012.1 |
| 20260830212143 | 99 | 208 | 8.0 | 17.0 | 0.00 | 0.00 | 0.00 | 22 | 1012.2 |
| 20260830211638 | 98 | 200 | 6.0 | 6.0 | 0.00 | 0.00 | 0.00 | 24 | 1012.2 |
| 20260830211137 | 98 | 208 | 11.0 | 12.0 | 0.00 | 0.00 | 0.00 | 23 | 1012.5 |
| 20260830210633 | 99 | 220 | 9.0 | 20.0 | 0.00 | 0.00 | 0.00 | 23 | 1012.5 |
| 20260830210132 | 99 | 185 | 8.0 | 11.0 | 0.00 | 0.00 | 0.00 | 22 | 1012.6 |
| 20260830205629 | 98 | 221 | 19.0 | 21.0 | 0.00 | 0.00 | 0.00 | 23 | 1012.6 |
| 20260830205125 | 98 | 195 | 10.0 | 19.0 | 0.00 | 0.00 | 0.00 | 23 | 1012.7 |
| 20260830204624 | 98 | 227 | 15.0 | 18.0 | 0.00 | 0.00 | 0.00 | 23 | 1013.1 |
| 20260830204123 | 98 | 221 | 12.0 | 15.0 | 0.00 | 0.00 | 0.00 | 24 | 1012.9 |
| 20260830203620 | 97 | 192 | 12.0 | 15.0 | 0.00 | 0.00 | 0.00 | 24 | 1012.7 |
| 20260830203119 | 97 | 201 | 10.0 | 15.0 | 0.00 | 0.00 | 0.00 | 24 | 1013.1 |
| 20260830202619 | 98 | 220 | 13.0 | 21.0 | 0.00 | 0.00 | 0.00 | 24 | 1013.1 |
| 20260830202115 | 98 | 213 | 17.0 | 22.0 | 0.00 | 0.00 | 0.00 | 24 | 1013.0 |
| 20260830201614 | 98 | 224 | 4.0 | 7.0 | 0.00 | 0.00 | 0.00 | 26 | 1013.0 |
| 20260830201109 | 98 | 188 | 14.0 | 16.0 | 0.00 | 0.00 | 0.00 | 24 | 1013.0 |
| 20260830200605 | 98 | 221 | 16.0 | 22.0 | 0.00 | 0.00 | 0.00 | 25 | 1013.3 |
| 20260830200104 | 98 | 172 | 9.0 | 22.0 | 0.00 | 0.00 | 0.00 | 24 | 1013.5 |
| 20260830195559 | 98 | 173 | 8.0 | 16.0 | 0.00 | 0.00 | 0.00 | 24 | 1013.6 |
| 20260830195057 | 97 | 188 | 9.0 | 22.0 | 0.00 | 0.00 | 0.00 | 24 | 1013.6 |
| 20260830194557 | 97 | 235 | 16.0 | 22.0 | 0.00 | 0.00 | 0.00 | 24 | 1013.5 |
| 20260830194051 | 97 | 186 | 10.0 | 17.0 | 0.00 | 0.00 | 0.00 | 25 | 1013.5 |
| 20260830193550 | 97 | 206 | 10.0 | 21.0 | 0.00 | 0.00 | 0.00 | 24 | 1013.7 |
| 20260830193046 | 97 | 191 | 5.0 | 15.0 | 0.00 | 0.00 | 0.00 | 24 | 1013.5 |
| 20260830192541 | 98 | 209 | 13.0 | 24.0 | 0.00 | 0.00 | 0.00 | 25 | 1013.6 |
| 20260830192035 | 96 | 225 | 14.0 | 22.0 | 0.00 | 0.00 | 0.00 | 25 | 1013.7 |
| 20260830191531 | 97 | 220 | 14.0 | 21.0 | 0.00 | 0.00 | 0.00 | 25 | 1013.5 |
| 20260830191026 | 96 | 192 | 6.0 | 19.0 | 0.00 | 0.00 | 0.00 | 24 | 1013.6 |
| 20260830190521 | 96 | 194 | 15.0 | 19.0 | 0.00 | 0.00 | 0.00 | 25 | 1013.9 |
| 20260830190016 | 95 | 212 | 16.0 | 22.0 | 0.00 | 0.00 | 0.00 | 25 | 1013.6 |
| 20260830185510 | 96 | 196 | 13.0 | 20.0 | 0.00 | 0.00 | 0.00 | 24 | 1014.0 |
| 20260830185006 | 96 | 211 | 9.0 | 14.0 | 0.00 | 0.00 | 0.00 | 24 | 1014.3 |
| 20260830184505 | 95 | 194 | 11.0 | 20.0 | 0.00 | 0.00 | 0.00 | 25 | 1014.2 |
| 20260830183959 | 95 | 195 | 15.0 | 20.0 | 0.00 | 0.00 | 0.00 | 25 | 1014.2 |
| 20260830183454 | 95 | 193 | 11.0 | 22.0 | 0.00 | 0.00 | 0.00 | 26 | 1014.0 |
| 20260830182949 | 95 | 210 | 13.0 | 23.0 | 0.00 | 0.00 | 0.00 | 25 | 1014.1 |
| 20260830182444 | 94 | 178 | 12.0 | 22.0 | 0.00 | 0.00 | 0.00 | 26 | 1014.2 |
| 20260830181935 | 94 | 208 | 11.0 | 20.0 | 0.00 | 0.00 | 0.00 | 27 | 1014.5 |
| 20260830181431 | 95 | 196 | 8.0 | 22.0 | 0.00 | 0.00 | 0.00 | 27 | 1014.3 |
| 20260830180925 | 94 | 206 | 11.0 | 24.0 | 0.00 | 0.00 | 0.00 | 29 | 1014.6 |
| 20260830180425 | 94 | 220 | 9.0 | 19.0 | 0.00 | 0.00 | 0.00 | 27 | 1014.6 |
| 20260830175923 | 93 | 220 | 11.0 | 20.0 | 0.00 | 0.00 | 0.00 | 30 | 1014.8 |
| 20260830175417 | 94 | 191 | 14.0 | 23.0 | 0.00 | 0.00 | 0.00 | 29 | 1014.8 |
| 20260830174913 | 94 | 225 | 17.0 | 23.0 | 0.00 | 0.00 | 0.00 | 30 | 1014.7 |
| 20260830174408 | 93 | 226 | 9.0 | 19.0 | 0.00 | 0.00 | 0.00 | 31 | 1014.8 |
| 20260830173904 | 93 | 208 | 13.0 | 19.0 | 0.00 | 0.00 | 0.00 | 31 | 1014.9 |
| 20260830173359 | 93 | 202 | 14.0 | 20.0 | 0.00 | 0.00 | 0.00 | 32 | 1014.8 |
| 20260830172855 | 92 | 179 | 8.0 | 22.0 | 0.00 | 0.00 | 0.00 | 33 | 1015.0 |
| 20260830172351 | 93 | 202 | 15.0 | 22.0 | 0.00 | 0.00 | 0.00 | 32 | 1015.0 |
| 20260830171846 | 92 | 212 | 17.0 | 21.0 | 0.00 | 0.00 | 0.00 | 32 | 1015.0 |
| 20260830171342 | 93 | 203 | 11.0 | 15.0 | 0.00 | 0.00 | 0.00 | 31 | 1015.0 |
| 20260830170837 | 92 | 201 | 12.0 | 17.0 | 0.00 | 0.00 | 0.00 | 33 | 1015.1 |
| 20260830170336 | 92 | 203 | 15.0 | 23.0 | 0.00 | 0.00 | 0.00 | 32 | 1015.1 |
| 20260830165834 | 91 | 199 | 15.0 | 20.0 | 0.00 | 0.00 | 0.00 | 33 | 1015.2 |
| 20260830165331 | 91 | 218 | 13.0 | 25.0 | 0.00 | 0.00 | 0.00 | 35 | 1015.2 |
| 20260830164827 | 90 | 224 | 22.0 | 26.0 | 0.00 | 0.00 | 0.00 | 35 | 1015.1 |
| 20260830164323 | 90 | 216 | 10.0 | 18.0 | 0.00 | 0.00 | 0.00 | 36 | 1015.1 |
| 20260830163820 | 90 | 216 | 12.0 | 18.0 | 0.00 | 0.00 | 0.00 | 36 | 1015.2 |
| 20260830163314 | 89 | 224 | 21.0 | 23.0 | 0.00 | 0.00 | 0.00 | 37 | 1015.1 |
| 20260830162809 | 89 | 195 | 17.0 | 25.0 | 0.00 | 0.00 | 0.00 | 38 | 1015.2 |
| 20260830162306 | 88 | 220 | 17.0 | 25.0 | 0.00 | 0.00 | 0.00 | 38 | 1015.1 |
| 20260830161800 | 88 | 220 | 17.0 | 22.0 | 0.00 | 0.00 | 0.00 | 39 | 1015.4 |
| 20260830161254 | 88 | 214 | 15.0 | 24.0 | 0.00 | 0.00 | 0.00 | 39 | 1015.2 |
| 20260830160750 | 87 | 223 | 9.0 | 19.0 | 0.00 | 0.00 | 0.00 | 41 | 1015.4 |
| 20260830160249 | 87 | 220 | 12.0 | 18.0 | 0.00 | 0.00 | 0.00 | 42 | 1015.6 |
| 20260830155745 | 87 | 216 | 9.0 | 20.0 | 0.00 | 0.00 | 0.00 | 42 | 1015.2 |
| 20260830155241 | 86 | 214 | 14.0 | 20.0 | 0.00 | 0.00 | 0.00 | 42 | 1015.1 |
| 20260830154736 | 86 | 216 | 15.0 | 23.0 | 0.00 | 0.00 | 0.00 | 43 | 1015.5 |
| 20260830154232 | 86 | 211 | 10.0 | 20.0 | 0.00 | 0.00 | 0.00 | 44 | 1015.5 |
| 20260830153728 | 85 | 220 | 13.0 | 22.0 | 0.00 | 0.00 | 0.00 | 44 | 1015.4 |
| 20260830153224 | 85 | 210 | 11.0 | 20.0 | 0.00 | 0.00 | 0.00 | 43 | 1015.2 |
| 20260830152721 | 84 | 215 | 9.0 | 17.0 | 0.00 | 0.00 | 0.00 | 45 | 1015.2 |
| 20260830152216 | 84 | 223 | 16.0 | 21.0 | 0.00 | 0.00 | 0.00 | 45 | 1015.5 |
| 20260830151711 | 84 | 218 | 13.0 | 23.0 | 0.00 | 0.00 | 0.00 | 45 | 1015.5 |
| 20260830151210 | 83 | 226 | 15.0 | 23.0 | 0.00 | 0.00 | 0.00 | 46 | 1015.6 |
| 20260830150706 | 83 | 215 | 15.0 | 22.0 | 0.00 | 0.00 | 0.00 | 46 | 1015.6 |
| 20260830150206 | 83 | 220 | 13.0 | 22.0 | 0.00 | 0.00 | 0.00 | 46 | 1015.5 |
| 20260830145700 | 83 | 219 | 12.0 | 23.0 | 0.00 | 0.00 | 0.00 | 47 | 1015.6 |
| 20260830145155 | 82 | 222 | 16.0 | 22.0 | 0.00 | 0.00 | 0.00 | 47 | 1015.7 |
| 20260830144650 | 82 | 202 | 7.0 | 16.0 | 0.00 | 0.00 | 0.00 | 47 | 1015.5 |
| 20260830144146 | 82 | 219 | 13.0 | 19.0 | 0.00 | 0.00 | 0.00 | 48 | 1015.5 |
| 20260830143643 | 82 | 218 | 11.0 | 19.0 | 0.00 | 0.00 | 0.00 | 47 | 1015.7 |
| 20260830143140 | 82 | 213 | 5.0 | 13.0 | 0.00 | 0.00 | 0.00 | 48 | 1015.5 |
| 20260830142635 | 81 | 225 | 11.0 | 16.0 | 0.00 | 0.00 | 0.00 | 49 | 1015.5 |
| 20260830142130 | 81 | 200 | 6.0 | 14.0 | 0.00 | 0.00 | 0.00 | 50 | 1015.6 |
| 20260830141625 | 80 | 223 | 8.0 | 19.0 | 0.00 | 0.00 | 0.00 | 51 | 1015.5 |
| 20260830141120 | 80 | 216 | 12.0 | 20.0 | 0.00 | 0.00 | 0.00 | 51 | 1015.4 |
| 20260830140615 | 80 | 225 | 15.0 | 20.0 | 0.00 | 0.00 | 0.00 | 50 | 1015.4 |
| 20260830140110 | 79 | 222 | 9.0 | 16.0 | 0.00 | 0.00 | 0.00 | 51 | 1015.5 |
| 20260830135604 | 79 | 223 | 13.0 | 18.0 | 0.00 | 0.00 | 0.00 | 51 | 1015.5 |
| 20260830135100 | 78 | 224 | 10.0 | 19.0 | 0.00 | 0.00 | 0.00 | 52 | 1015.5 |
| 20260830134555 | 78 | 218 | 14.0 | 16.0 | 0.00 | 0.00 | 0.00 | 52 | 1015.4 |
| 20260830134050 | 77 | 218 | 9.0 | 17.0 | 0.00 | 0.00 | 0.00 | 53 | 1015.4 |
| 20260830133546 | 77 | 225 | 11.0 | 14.0 | 0.00 | 0.00 | 0.00 | 53 | 1015.2 |
| 20260830133040 | 77 | 217 | 10.0 | 15.0 | 0.00 | 0.00 | 0.00 | 53 | 1015.1 |
| 20260830132537 | 77 | 225 | 9.0 | 13.0 | 0.00 | 0.00 | 0.00 | 54 | 1015.2 |
| 20260830132032 | 76 | 223 | 10.0 | 14.0 | 0.00 | 0.00 | 0.00 | 54 | 1015.1 |
| 20260830131530 | 76 | 220 | 7.0 | 14.0 | 0.00 | 0.00 | 0.00 | 54 | 1015.1 |
| 20260830131026 | 76 | 214 | 6.0 | 15.0 | 0.00 | 0.00 | 0.00 | 55 | 1015.1 |
| 20260830130521 | 75 | 230 | 9.0 | 12.0 | 0.00 | 0.00 | 0.00 | 55 | 1014.8 |
| 20260830130016 | 75 | 222 | 8.0 | 14.0 | 0.00 | 0.00 | 0.00 | 56 | 1014.9 |
| 20260830125510 | 75 | 224 | 7.0 | 12.0 | 0.00 | 0.00 | 0.00 | 56 | 1015.0 |
| 20260830125009 | 74 | 232 | 7.0 | 12.0 | 0.00 | 0.00 | 0.00 | 57 | 1015.0 |
| 20260830124503 | 74 | 229 | 7.0 | 9.0 | 0.00 | 0.00 | 0.00 | 58 | 1014.9 |
| 20260830123959 | 74 | 226 | 7.0 | 12.0 | 0.00 | 0.00 | 0.00 | 57 | 1014.8 |
| 20260830123456 | 74 | 223 | 9.0 | 10.0 | 0.00 | 0.00 | 0.00 | 57 | 1015.0 |
| 20260830122955 | 74 | 236 | 5.0 | 9.0 | 0.00 | 0.00 | 0.00 | 58 | 1014.8 |
| 20260830122453 | 74 | 223 | 5.0 | 11.0 | 0.00 | 0.00 | 0.00 | 57 | 1014.8 |
| 20260830121948 | 73 | 227 | 6.0 | 10.0 | 0.00 | 0.00 | 0.00 | 58 | 1014.9 |
| 20260830121443 | 73 | 223 | 6.0 | 9.0 | 0.00 | 0.00 | 0.00 | 59 | 1014.8 |
| 20260830120938 | 73 | 226 | 7.0 | 10.0 | 0.00 | 0.00 | 0.00 | 57 | 1014.7 |
| 20260830120433 | 73 | 238 | 5.0 | 9.0 | 0.00 | 0.00 | 0.00 | 57 | 1014.5 |
| 20260830115930 | 73 | 240 | 3.0 | 8.0 | 0.00 | 0.00 | 0.00 | 57 | 1014.6 |
| 20260830115426 | 73 | 229 | 5.0 | 8.0 | 0.00 | 0.00 | 0.00 | 57 | 1014.3 |
| 20260830114921 | 73 | 224 | 7.0 | 8.0 | 0.00 | 0.00 | 0.00 | 56 | 1014.5 |
| 20260830114418 | 74 | 225 | 5.0 | 9.0 | 0.00 | 0.00 | 0.00 | 55 | 1014.5 |
| 20260830113917 | 74 | 232 | 6.0 | 10.0 | 0.00 | 0.00 | 0.00 | 54 | 1014.6 |
| 20260830113412 | 74 | 231 | 7.0 | 12.0 | 0.00 | 0.00 | 0.00 | 53 | 1014.5 |
| 20260830112908 | 74 | 237 | 8.0 | 15.0 | 0.00 | 0.00 | 0.00 | 53 | 1014.3 |
| 20260830112403 | 74 | 232 | 7.0 | 13.0 | 0.00 | 0.00 | 0.00 | 53 | 1014.5 |
| 20260830111900 | 74 | 221 | 8.0 | 13.0 | 0.00 | 0.00 | 0.00 | 52 | 1014.5 |
| 20260830111355 | 74 | 220 | 11.0 | 13.0 | 0.00 | 0.00 | 0.00 | 52 | 1014.8 |
| 20260830110850 | 74 | 211 | 7.0 | 8.0 | 0.00 | 0.00 | 0.00 | 52 | 1014.6 |
| 20260830110346 | 74 | 213 | 5.0 | 8.0 | 0.00 | 0.00 | 0.00 | 52 | 1014.7 |
| 20260830105844 | 74 | 200 | 9.0 | 9.0 | 0.00 | 0.00 | 0.00 | 52 | 1014.6 |
| 20260830105342 | 74 | 181 | 6.0 | 9.0 | 0.00 | 0.00 | 0.00 | 52 | 1014.5 |
| 20260830104837 | 74 | 193 | 6.0 | 9.0 | 0.00 | 0.00 | 0.00 | 51 | 1014.2 |
| 20260830104334 | 75 | 193 | 5.0 | 7.0 | 0.00 | 0.00 | 0.00 | 51 | 1014.2 |
| 20260830103833 | 75 | 192 | 3.0 | 7.0 | 0.00 | 0.00 | 0.00 | 51 | 1014.3 |
| 20260830103329 | 75 | 199 | 4.0 | 7.0 | 0.00 | 0.00 | 0.00 | 50 | 1014.2 |
| 20260830102827 | 75 | 217 | 4.0 | 7.0 | 0.00 | 0.00 | 0.00 | 50 | 1014.2 |
| 20260830102323 | 75 | 216 | 8.0 | 10.0 | 0.00 | 0.00 | 0.00 | 49 | 1014.3 |
| 20260830101818 | 75 | 221 | 6.0 | 10.0 | 0.00 | 0.00 | 0.00 | 49 | 1014.3 |
| 20260830101314 | 75 | 222 | 6.0 | 9.0 | 0.00 | 0.00 | 0.00 | 49 | 1014.3 |
| 20260830100813 | 75 | 226 | 5.0 | 12.0 | 0.00 | 0.00 | 0.00 | 49 | 1014.3 |
| 20260830100307 | 75 | 205 | 7.0 | 9.0 | 0.00 | 0.00 | 0.00 | 48 | 1014.1 |
| 20260830095806 | 75 | 190 | 6.0 | 9.0 | 0.00 | 0.00 | 0.00 | 48 | 1014.1 |
| 20260830095305 | 75 | 201 | 2.0 | 10.0 | 0.00 | 0.00 | 0.00 | 48 | 1014.2 |
| 20260830094758 | 75 | 215 | 7.0 | 8.0 | 0.00 | 0.00 | 0.00 | 48 | 1014.0 |
| 20260830094254 | 75 | 217 | 5.0 | 10.0 | 0.00 | 0.00 | 0.00 | 48 | 1014.1 |
| 20260830093749 | 75 | 216 | 7.0 | 12.0 | 0.00 | 0.00 | 0.00 | 47 | 1014.0 |
| 20260830093244 | 75 | 221 | 11.0 | 12.0 | 0.00 | 0.00 | 0.00 | 47 | 1014.1 |
| 20260830092739 | 75 | 214 | 8.0 | 10.0 | 0.00 | 0.00 | 0.00 | 47 | 1014.2 |
| 20260830092236 | 75 | 227 | 8.0 | 12.0 | 0.00 | 0.00 | 0.00 | 47 | 1014.0 |
| 20260830091731 | 75 | 220 | 7.0 | 8.0 | 0.00 | 0.00 | 0.00 | 48 | 1014.3 |
| 20260830091230 | 75 | 229 | 6.0 | 8.0 | 0.00 | 0.00 | 0.00 | 48 | 1014.1 |
| 20260830090725 | 75 | 210 | 5.0 | 10.0 | 0.00 | 0.00 | 0.00 | 48 | 1014.3 |
| 20260830090221 | 74 | 192 | 4.0 | 8.0 | 0.00 | 0.00 | 0.00 | 48 | 1014.1 |
| 20260830085719 | 74 | 189 | 4.0 | 7.0 | 0.00 | 0.00 | 0.00 | 48 | 1014.1 |
| 20260830085215 | 74 | 208 | 6.0 | 9.0 | 0.00 | 0.00 | 0.00 | 48 | 1014.1 |
| 20260830084711 | 74 | 213 | 4.0 | 7.0 | 0.00 | 0.00 | 0.00 | 48 | 1014.1 |
| 20260830084206 | 75 | 221 | 5.0 | 8.0 | 0.00 | 0.00 | 0.00 | 48 | 1014.1 |
| 20260830083701 | 75 | 186 | 6.0 | 9.0 | 0.00 | 0.00 | 0.00 | 47 | 1014.0 |
| 20260830083156 | 75 | 192 | 4.0 | 7.0 | 0.00 | 0.00 | 0.00 | 47 | 1014.1 |
| 20260830082656 | 75 | 174 | 4.0 | 8.0 | 0.00 | 0.00 | 0.00 | 47 | 1014.1 |
| 20260830082152 | 76 | 198 | 5.0 | 10.0 | 0.00 | 0.00 | 0.00 | 46 | 1014.3 |
| 20260830081647 | 76 | 192 | 6.0 | 9.0 | 0.00 | 0.00 | 0.00 | 45 | 1014.3 |
| 20260830081147 | 76 | 199 | 10.0 | 12.0 | 0.00 | 0.00 | 0.00 | 45 | 1014.5 |
| 20260830080641 | 77 | 189 | 8.0 | 9.0 | 0.00 | 0.00 | 0.00 | 45 | 1014.2 |
| 20260830080137 | 77 | 199 | 5.0 | 10.0 | 0.00 | 0.00 | 0.00 | 44 | 1014.2 |
| 20260830075636 | 77 | 206 | 5.0 | 9.0 | 0.00 | 0.00 | 0.00 | 44 | 1014.3 |
| 20260830075132 | 77 | 218 | 7.0 | 11.0 | 0.00 | 0.00 | 0.00 | 43 | 1014.2 |
| 20260830074628 | 77 | 214 | 9.0 | 12.0 | 0.00 | 0.00 | 0.00 | 43 | 1014.6 |
| 20260830074123 | 77 | 182 | 5.0 | 10.0 | 0.00 | 0.00 | 0.00 | 43 | 1014.3 |
| 20260830073619 | 77 | 219 | 9.0 | 11.0 | 0.00 | 0.00 | 0.00 | 44 | 1014.6 |
| 20260830073114 | 77 | 214 | 9.0 | 10.0 | 0.00 | 0.00 | 0.00 | 44 | 1014.3 |
| 20260830072610 | 77 | 194 | 7.0 | 13.0 | 0.00 | 0.00 | 0.00 | 44 | 1014.6 |
| 20260830072109 | 77 | 207 | 7.0 | 12.0 | 0.00 | 0.00 | 0.00 | 44 | 1014.7 |
| 20260830071605 | 77 | 193 | 7.0 | 11.0 | 0.00 | 0.00 | 0.00 | 45 | 1014.6 |
| 20260830071103 | 77 | 185 | 6.0 | 9.0 | 0.00 | 0.00 | 0.00 | 45 | 1014.8 |
| 20260830070557 | 77 | 196 | 6.0 | 11.0 | 0.00 | 0.00 | 0.00 | 44 | 1014.8 |
| 20260830070052 | 78 | 186 | 6.0 | 10.0 | 0.00 | 0.00 | 0.00 | 44 | 1014.8 |
| 20260830065551 | 78 | 210 | 7.0 | 10.0 | 0.00 | 0.00 | 0.00 | 43 | 1014.8 |
| 20260830065050 | 78 | 196 | 6.0 | 11.0 | 0.00 | 0.00 | 0.00 | 43 | 1014.9 |
| 20260830064545 | 78 | 200 | 7.0 | 10.0 | 0.00 | 0.00 | 0.00 | 42 | 1014.8 |
| 20260830064039 | 79 | 201 | 8.0 | 11.0 | 0.00 | 0.00 | 0.00 | 41 | 1014.7 |
| 20260830063534 | 79 | 201 | 5.0 | 12.0 | 0.00 | 0.00 | 0.00 | 41 | 1014.8 |
| 20260830063033 | 79 | 196 | 8.0 | 11.0 | 0.00 | 0.00 | 0.00 | 41 | 1014.8 |
| 20260830062533 | 80 | 209 | 7.0 | 11.0 | 0.00 | 0.00 | 0.00 | 41 | 1014.7 |
| 20260830062028 | 80 | 203 | 6.0 | 12.0 | 0.00 | 0.00 | 0.00 | 40 | 1014.9 |
| 20260830061522 | 80 | 205 | 6.0 | 12.0 | 0.00 | 0.00 | 0.00 | 40 | 1014.8 |
| 20260830061019 | 81 | 190 | 5.0 | 15.0 | 0.00 | 0.00 | 0.00 | 39 | 1014.7 |
| 20260830060515 | 81 | 208 | 11.0 | 13.0 | 0.00 | 0.00 | 0.00 | 39 | 1014.8 |
| 20260830060011 | 81 | 191 | 11.0 | 15.0 | 0.00 | 0.00 | 0.00 | 39 | 1014.8 |
| 20260830055506 | 81 | 194 | 12.0 | 16.0 | 0.00 | 0.00 | 0.00 | 38 | 1014.8 |
| 20260830055002 | 81 | 194 | 12.0 | 15.0 | 0.00 | 0.00 | 0.00 | 38 | 1014.6 |
| 20260830054457 | 82 | 193 | 14.0 | 17.0 | 0.00 | 0.00 | 0.00 | 38 | 1014.6 |